GFSNW_850_dewp_102.txt.gz
Dewpoint
-7 -7 -8 -7 -4 -4 -2 -2 0 -2 -0 1 -1 -3 -7 -9 -11 -14 -15 -13 -13 -13 -14 -14 -13 -14 -14 -18 -17 -15 -14 -10 -2 -5 -3 -3 -0 -4 -4 -1 0 1 2 2
-6 -7 -6 -6 -5 -3 -3 -2 -2 -3 -0 1 -1 -5 -7 -9 -10 -12 -12 -12 -13 -14 -14 -12 -12 -12 -14 -16 -15 -16 -6 -4 -3 -6 -9 -9 -4 -2 -2 -4 -2 0 4 3
-7 -7 -6 -6 -6 -5 -2 -2 -1 -3 -0 -1 -3 -0 -4 -9 -10 -11 -12 -11 -12 -12 -12 -13 -12 -12 -14 -15 -13 -5 -4 -3 -1 -1 -6 -3 1 -1 -1 -1 7 1 -1 -3
-7 -8 -8 -7 -6 -5 -2 -2 -1 -6 -2 -1 -3 -5 -2 -0 -6 -9 -10 -10 -10 -10 -9 -10 -10 -11 -12 -13 -10 -7 -6 -4 -5 -7 -8 -9 -7 -5 -4 -2 -1 5 3 0
-6 -7 -7 -7 -5 -5 -2 -2 -1 -5 -4 -1 -2 -4 -5 -5 -6 -9 -4 -9 -11 -10 -9 -10 -10 -11 -10 -9 -10 -10 -7 -5 -7 -5 -7 -8 -9 -9 -7 -6 -6 -6 -5 -4
-7 -7 -7 -6 -5 -4 -3 -3 -4 -1 -4 -6 -5 -6 -2 -7 -10 -7 -8 -7 -2 -3 -6 -4 -2 -2 -3 -3 -1 -0 -0 -3 -5 -2 -5 -6 -4 -9 -9 -8 -8 -7 -5 -6
-8 -6 -7 -7 -5 -4 -2 -3 -2 -1 -2 -6 -6 -3 -6 -5 -7 -7 -8 -6 -5 -6 -3 -3 -4 -5 -5 -5 -5 -5 -0 3 1 1 -1 2 -4 -10 -9 -7 -9 -10 -9 -11
-6 -6 -6 -6 -6 -4 -3 -4 -1 -2 -3 -7 -8 -7 -8 -9 -8 -4 -3 -7 -6 -3 -2 -2 -4 -3 -3 -3 -4 -5 -4 -1 2 1 -1 -4 -7 -8 -3 4 2 4 5 4
-5 -5 -5 -6 -5 -5 -4 -2 -3 -2 -1 -5 -6 -6 -6 -5 -5 -8 -10 -10 -7 -0 -1 0 -1 -1 0 3 -4 -5 -4 -2 0 2 1 -1 -7 -4 -5 -4 2 4 3 4
-5 -5 -5 -5 -5 -5 -4 -3 -3 -1 -3 -5 -6 -4 -2 -4 -4 -3 -2 -1 -3 -1 1 0 -1 -1 -3 1 -0 4 0 1 2 3 4 -0 -7 -7 -6 -1 4 4 3 1
-6 -5 -4 -4 -5 -5 -5 -3 -3 -2 -3 -4 -5 -5 -5 -2 -3 -2 0 -0 -1 2 2 0 -2 -1 -2 -1 -3 4 3 4 3 2 2 2 -3 -2 2 3 -0 2 2 2
-4 -4 -5 -4 -4 -5 -5 -3 -3 -2 -2 -4 -3 -4 -5 -5 -3 -1 -1 -0 -1 0 2 1 3 2 1 1 2 -0 5 -1 2 0 0 -2 -2 -1 2 1 1 1 1 1
-3 -3 -3 -4 -4 -4 -4 -4 -3 -2 -2 -2 -3 -4 -5 -4 -3 -5 -3 -4 -5 -4 1 2 3 2 2 4 2 3 -1 0 1 2 0 1 -1 -3 -1 -1 -1 -1 -1 -0
-3 -3 -3 -4 -3 -4 -4 -4 -4 -2 -2 -3 -5 -6 -3 -5 -5 -4 -3 -2 -4 -4 -2 0 2 1 -2 2 2 3 0 -3 -2 -1 -0 -1 -1 -2 -1 -2 -3 -2 -1 2
-2 -3 -3 -3 -4 -4 -4 -4 -4 -3 -3 -3 -3 -3 -6 -5 -3 -3 -4 -4 -2 -1 -0 1 2 -2 -1 -1 -1 -0 -4 -4 -2 2 0 -0 0 -3 -5 -4 -4 0 1 3
-2 -2 -2 -3 -3 -3 -2 -2 -3 -3 -3 -2 -3 -4 -2 -4 -3 -3 -3 -3 -3 -0 1 1 -0 -2 -1 1 -2 -5 -5 -2 -3 -3 -4 -6 -5 -6 -5 -5 -0 1 2 2
-1 -2 -2 -2 -2 -2 -2 -2 -2 -5 -3 -2 -1 -4 -6 -4 -1 -1 -1 -2 -1 0 0 1 -1 -2 -2 3 1 -4 -4 -5 -5 -6 -6 -5 -5 -3 -3 -4 0 1 0 1
-1 -2 -2 -2 -2 -2 -2 -2 -1 -1 -2 -1 0 -0 -2 -2 0 -0 -1 -1 -0 0 1 1 1 -2 -1 2 -3 -5 -6 -7 -6 -5 -6 -2 -2 -2 -4 -3 0 1 -0 -1
-1 -1 -2 -2 -2 -1 -2 -2 -1 -1 -1 -1 -1 -1 -2 -1 -1 -1 -1 -1 1 -1 1 -1 -3 -1 0 -3 -5 -5 -6 -6 -6 -6 -4 -2 -4 1 -1 -0 -0 1 -0 -1
-1 -2 -1 -2 -1 -1 -1 -2 -1 -1 -1 -0 -0 -3 -0 -1 -1 1 -0 -1 -0 0 -1 -3 0 -1 -4 -5 -5 -6 -6 -4 -2 -2 -2 -1 -1 -1 0 0 1 1 -1 -2
-1 -1 -1 -1 -1 -2 -1 -2 -1 -1 0 -1 -1 -3 -1 -2 1 1 -1 1 -0 0 -3 -1 -1 -2 0 -1 -1 -1 -1 -1 -1 -1 -1 -1 -1 -1 -1 -0 0 -1 -2 -2
-1 -1 -1 -1 -1 -1 0 1 -0 -1 -3 -2 -1 -3 -3 -1 -0 1 1 0 1 0 1 3 -1 -1 -3 -3 -3 -3 -3 -2 -2 -2 -2 -2 -1 -1 -0 0 -1 -2 -3 -4
-1 -1 -1 -0 -1 1 -1 -0 -1 -1 -0 -2 -1 1 0 0 -0 1 1 1 -0 -2 2 -0 -1 -4 -4 -4 -3 -4 -4 -5 -4 -4 -4 -3 -3 -2 -1 -1 -2 -4 -5 -6
-1 -1 0 0 0 -0 -1 -1 -1 0 -0 -2 -1 0 0 0 1 0 -1 -0 0 0 1 -1 -3 -4 -5 -5 -5 -5 -5 -6 -6 -6 -6 -6 -5 -5 -4 -4 -5 -5 -7 -9
-3 -3 -2 -2 -3 -3 -2 -1 -1 -2 -0 -1 -1 -1 -1 1 1 0 0 1 1 0 -1 -3 -5 -5 -6 -6 -6 -7 -7 -7 -8 -8 -8 -8 -8 -8 -8 -9 -8 -8 -9 -10
-6 -5 -4 -3 -3 -2 -3 -2 -3 -3 -1 -0 -0 0 0 1 0 1 -0 -1 -1 -3 -4 -5 -6 -6 -6 -7 -7 -8 -8 -9 -9 -9 -10 -10 -10 -10 -11 -11 -11 -11 -11 -12
-6 -6 -5 -4 -5 -4 -4 -4 -4 -4 -2 1 0 2 0 0 -0 -0 -3 -3 -4 -6 -6 -6 -7 -7 -7 -8 -8 -9 -9 -9 -10 -11 -11 -12 -12 -12 -12 -13 -13 -13 -13 -13

GFSNW_850_dewp_108.txt.gz
Dewpoint
-5 -4 -7 -8 -7 -6 -7 -3 -4 -3 -1 -1 -1 -1 -4 -4 -4 -5 -5 -6 -6 -5 -9 -9 -10 -9 -10 -11 -10 -10 -9 -9 -8 -7 -10 -8 -0 2 3 6 3 4 3 1
-6 -6 -7 -9 -6 -5 -5 -4 -4 -8 -5 -6 -1 -1 -2 -4 -4 -5 -5 -6 -6 -6 -10 -8 -8 -9 -10 -11 -8 -7 -9 -6 0 -7 -7 -2 -0 -2 -4 4 5 5 5 1
-5 -7 -8 -10 -6 -5 -4 -4 -5 -5 -2 -2 -3 -2 -3 -3 -6 -3 -4 -4 -5 -5 -8 -9 -7 -7 -9 -10 -11 -6 -6 -4 -4 -3 -1 -4 -6 -7 -7 3 4 5 3 4
-7 -7 -8 -6 -9 -7 -3 -4 -4 -4 -6 -4 -2 -2 -2 -2 -3 -6 -3 -3 -3 -4 -7 -8 -7 -7 -2 -4 -2 -5 -5 -3 -4 -4 -5 -6 -7 -7 -8 -7 -4 3 0 -1
-8 -7 -7 -5 -7 -6 -4 -4 -3 -4 -3 -4 -4 -4 -3 -3 -3 -2 -1 -1 -2 -1 -2 -7 -5 -1 -1 -1 -2 -2 -1 -2 -4 -3 -4 -5 -4 -6 -6 -8 -8 -8 -6 -4
-7 -5 -8 -7 -7 -5 -4 -3 -4 -4 -5 -4 -4 -4 -2 -1 -5 -4 -3 -0 1 0 -3 -3 -2 -2 -2 -1 -1 -2 -1 -1 -1 -2 -3 -2 -1 -4 -6 -7 -8 -8 -6 -5
-7 -5 -8 -9 -6 -6 -5 -4 -4 -3 -4 -4 -4 -3 -4 -3 -4 -2 -4 -4 -3 -5 -5 -4 -4 -4 -3 -2 -2 -2 -1 -1 -0 0 -1 -0 -7 -5 -5 -6 -7 -3 2 4
-5 -6 -7 -9 -7 -5 -5 -5 -4 -4 -2 -2 -3 -2 -2 -3 -3 -4 -4 -5 -5 -5 -3 -4 -2 -3 -3 -3 -4 -3 -3 -1 -1 -1 0 -3 -5 -4 1 1 -1 5 5 4
-6 -6 -6 -6 -5 -4 -5 -5 -5 -3 -3 -4 -2 -4 -2 -1 -2 -3 -3 -3 -2 -3 -3 -3 -1 -1 -2 -2 0 -2 -3 -3 -1 1 1 2 -1 -1 -3 -1 4 4 4 4
-5 -4 -6 -5 -4 -5 -4 -5 -5 -3 -3 -4 -3 -4 -3 -3 -3 -3 -1 -3 -1 -1 -3 -1 -1 -1 -3 -1 2 2 2 -0 0 -0 -1 1 -2 -5 -5 4 4 3 2 2
-6 -5 -4 -4 -4 -5 -4 -5 -5 -4 -3 -4 -6 -6 -5 -4 -3 -2 -2 -3 -1 -1 -2 -1 -1 -0 -0 1 -1 2 3 2 1 0 -0 1 0 2 1 2 1 2 1 0
-7 -6 -6 -5 -6 -6 -3 -3 -4 -5 -3 -4 -3 -4 -4 -3 -3 -3 -3 -2 -0 -1 -1 -1 -1 1 1 2 2 2 3 3 1 -1 -1 -1 2 2 2 1 -1 -1 -2 -2
-5 -7 -7 -7 -7 -6 -5 -4 -4 -4 -4 -3 -4 -6 -8 -7 -6 -4 -3 -2 -3 -1 -2 -1 -2 -0 1 1 1 1 2 1 3 2 2 2 3 1 1 -0 -2 -3 -2 2
-7 -8 -7 -7 -6 -4 -4 -4 -4 -3 -4 -2 -4 -7 -6 -7 -6 -6 -5 -5 -4 -4 -3 -2 -2 -1 -2 0 -1 0 2 2 3 3 2 2 1 1 -1 -2 -2 -2 1 1
-8 -7 -6 -6 -3 -3 -3 -3 -4 -4 -5 -3 -3 -5 -9 -9 -5 -5 -4 -5 -3 -2 -1 -0 -1 -0 -0 -1 1 1 1 1 1 2 2 2 1 -1 -1 -1 -0 0 1 1
-5 -5 -5 -4 -3 -3 -3 -3 -3 -4 -3 -3 -3 -5 -6 -9 -4 -2 -4 -3 -4 -4 -1 -1 0 -2 -1 1 2 -2 -4 -6 -5 -3 -4 -3 -2 0 1 1 2 1 -1 -1
-4 -3 -3 -3 -2 -2 -2 -3 -5 -6 -4 -2 -3 -3 -6 -7 -7 -8 -3 -3 -2 -2 -2 -0 -0 -2 -1 -0 0 -4 -4 -3 -3 -2 -3 -0 1 1 1 1 -0 -1 -0 -0
-3 -3 -3 -2 -2 -2 -3 -2 -2 -3 -3 -3 -2 -3 -3 -5 -4 -1 -2 0 -0 -0 -0 0 0 -0 -0 1 -1 -1 -1 -1 -1 -1 0 -0 0 2 2 2 1 0 -0 -1
-2 -2 -2 -2 -2 -2 -3 -2 -2 -3 -3 -3 -3 -2 -3 -2 -2 -1 1 0 0 -0 -0 1 0 -0 1 0 -1 -2 -2 -2 -2 -1 -1 -1 -1 -1 1 1 1 1 -0 -1
-1 -2 -2 -2 -2 -2 -4 -2 -3 -2 -2 -1 -2 -4 -2 -3 -1 0 -0 0 -1 1 -0 -1 0 1 -1 -1 -2 -3 -4 -3 -2 -2 -2 -2 -2 -1 -1 -1 0 0 -1 -2
-2 -2 -2 -2 -2 -2 -2 -2 -2 -2 -2 -2 -2 -3 -3 -3 -2 -2 0 -2 -2 -1 -2 -0 0 1 -2 -3 -3 -4 -4 -5 -4 -4 -4 -3 -3 -2 -2 -1 -1 -1 -2 -3
-2 -2 -2 -1 -2 -1 -2 -2 -2 -2 -2 -2 -2 -1 -2 -2 -1 -2 -2 -3 -3 -2 -1 1 1 -3 -4 -5 -5 -5 -6 -6 -6 -7 -6 -5 -4 -4 -3 -3 -2 -3 -3 -3
-2 -1 -1 -1 -2 -1 -2 -1 -3 -2 -3 -2 -0 -2 -2 -1 -1 -1 -2 -3 -3 -3 -5 -1 -3 -5 -6 -6 -6 -7 -7 -7 -7 -7 -7 -7 -6 -5 -4 -4 -4 -4 -4 -5
-1 -1 -1 -2 -3 -2 -3 -3 -3 -3 -0 -2 -2 -0 -1 -1 -3 -3 -5 -4 -1 -0 -3 -3 -5 -6 -7 -7 -7 -8 -8 -9 -9 -9 -9 -8 -8 -7 -6 -6 -6 -6 -7 -8
-2 -3 -4 -5 -3 -2 -1 -1 -1 -1 -0 -2 -1 -1 -2 -1 -3 -3 -3 -2 -1 -2 -5 -7 -6 -7 -8 -8 -8 -9 -9 -10 -11 -11 -10 -10 -9 -9 -8 -9 -9 -8 -9 -10
-6 -5 -4 -2 -3 -3 -3 -2 -2 -1 -1 -2 -3 -2 -3 -4 -5 -2 -3 -1 -3 -7 -8 -7 -9 -8 -9 -8 -9 -9 -9 -10 -11 -12 -11 -11 -11 -10 -10 -11 -11 -11 -11 -11
-6 -6 -6 -4 -5 -5 -5 -5 -4 -2 -1 -2 -2 -2 -5 -4 -2 -3 -5 -8 -8 -7 -7 -9 -10 -10 -10 -10 -9 -10 -10 -11 -12 -12 -13 -12 -12 -12 -12 -12 -12 -12 -12 -12

GFSNW_850_dewp_114.txt.gz
Dewpoint
-5 -5 -7 -7 -7 -8 -6 -7 -9 -4 -5 -4 -3 -3 -4 -4 -4 -6 -4 -4 -3 -3 -4 -4 -4 -4 -8 -10 -8 -7 -8 -6 -5 -8 -6 -6 1 3 3 3 5 4 4 3
-7 -7 -6 -7 -8 -8 -6 -6 -6 -8 -6 -8 -8 -5 -3 -4 -5 -6 -3 -3 -4 -5 -3 -2 -2 -3 -8 -8 -8 -6 -4 -4 -6 -6 -3 -6 -3 -6 -0 2 3 3 4 1
-6 -5 -7 -7 -8 -7 -5 -6 -8 -8 -4 -5 -4 -3 -4 -3 -5 -5 -4 -4 -4 -4 -3 -3 -2 -2 -5 -6 -5 -2 -3 -3 -6 -6 -6 -6 -8 -8 -7 1 1 -1 1 -3
-7 -7 -8 -9 -8 -7 -5 -5 -7 -5 -6 -6 -3 -4 -4 -5 -4 -4 -4 -3 -3 -2 0 -1 -1 -3 -5 -5 -3 -4 -3 -4 -6 -5 -6 -6 -6 -6 -6 -5 -4 -2 -9 -9
-6 -7 -8 -8 -7 -5 -5 -5 -5 -5 -4 -4 -4 -5 -4 -6 -6 -2 -2 -1 -2 -1 0 -1 1 -3 -1 -4 -4 -4 -3 -2 -3 -3 -4 -4 -3 -4 -4 -4 -5 -6 -6 -6
-6 -7 -8 -7 -7 -4 -4 -5 -5 -6 -6 -6 -4 -6 -6 -4 -4 -2 -1 -0 -0 0 -1 -1 -1 -3 -4 -3 -3 -2 -3 -3 -1 -4 -4 -4 -5 -7 -6 -5 -5 -6 -4 -7
-7 -8 -9 -5 -7 -6 -5 -5 -5 -4 -6 -5 -5 -5 -4 -2 -2 -1 -3 -3 -1 -3 -4 -3 -4 -3 -3 -2 -2 -3 -2 -1 -2 -1 -2 -3 -10 -8 -9 -6 -7 -7 -7 -7
-6 -9 -8 -6 -7 -7 -5 -5 -5 -5 -6 -6 -6 -5 -2 -3 -4 -3 -3 -4 -5 -2 -1 -4 -3 -4 -6 -6 -4 -3 -2 -2 -2 -3 -1 -6 -8 -11 -5 2 0 -1 -1 -0
-8 -7 -7 -5 -5 -8 -7 -6 -4 -4 -5 -6 -5 -3 -4 -2 -2 -3 -5 -5 -7 -3 -3 -4 -2 -2 -3 -4 -5 -3 -2 -2 -2 -1 -1 -3 -8 -6 -1 0 -1 1 2 4
-8 -6 -7 -6 -5 -6 -7 -5 -4 -4 -4 -6 -5 -3 -3 -4 -3 -3 -4 -3 -4 -3 -5 -2 -1 -1 -3 -1 -1 -2 1 1 1 1 1 -3 -6 -7 -4 0 -0 1 2 3
-7 -6 -7 -6 -5 -5 -5 -5 -4 -4 -4 -6 -7 -7 -5 -4 -4 -4 -5 -5 -4 -4 -2 -2 -1 -0 0 1 -2 1 2 2 1 1 0 -2 1 1 2 3 3 3 3 2
-7 -6 -5 -6 -4 -4 -4 -4 -4 -4 -4 -5 -6 -6 -6 -7 -7 -3 -3 -4 -3 -3 -5 -4 -2 -1 -1 -0 0 1 1 1 1 1 -2 0 1 2 2 -0 2 2 0 -1
-6 -6 -6 -7 -6 -5 -3 -3 -4 -4 -3 -3 -3 -7 -9 -8 -8 -9 -4 -5 -4 -3 -2 -1 -1 -2 -2 -1 0 1 1 0 2 2 2 1 1 1 1 2 1 2 2 2
-7 -7 -8 -8 -6 -6 -5 -3 -4 -3 -4 -4 -6 -8 -9 -9 -7 -6 -5 -6 -4 -3 -2 -3 -2 -2 -3 -1 -2 -0 1 1 1 2 2 1 2 2 2 2 2 2 2 1
-6 -6 -6 -5 -5 -7 -4 -4 -5 -4 -4 -4 -4 -8 -11 -11 -11 -9 -6 -4 -4 -4 -3 -3 -2 -1 -2 -1 -1 1 -1 1 2 2 1 1 2 2 2 1 0 0 -0 -1
-5 -7 -9 -9 -8 -7 -4 -4 -5 -5 -4 -3 -4 -8 -10 -10 -10 -8 -6 -7 -4 -3 -3 -3 -3 -3 -1 0 1 -1 -2 -2 -1 -0 0 2 0 0 1 1 0 -1 0 -1
-6 -6 -7 -7 -7 -6 -4 -3 -3 -4 -4 -3 -5 -5 -7 -6 -6 -6 -5 -3 -3 -3 -2 -2 -2 -2 -1 -1 -1 -1 -2 -2 -1 -1 -1 -1 -1 0 0 -0 -1 -1 -2 -2
-7 -9 -7 -5 -6 -4 -4 -4 -3 -3 -3 -3 -4 -5 -4 -6 -4 -3 -3 -2 -2 -1 -2 -1 -1 -1 -1 0 -1 -3 -3 -4 -3 -4 -3 -3 -2 -2 -1 -1 -1 -1 -2 -2
-7 -8 -5 -4 -4 -4 -3 -5 -2 -3 -3 -4 -5 -4 -5 -3 -1 -2 -1 -1 -1 -1 -1 -0 -0 -0 1 -2 -3 -4 -5 -5 -5 -5 -4 -4 -4 -4 -3 -2 -2 -2 -3 -3
-7 -4 -4 -3 -3 -4 -5 -3 -3 -3 -3 -3 -3 -4 -4 -3 -0 -0 -0 -1 0 1 0 -0 0 -1 -3 -4 -4 -5 -6 -6 -6 -5 -5 -6 -6 -6 -5 -5 -4 -4 -3 -4
-4 -3 -3 -3 -3 -3 -3 -3 -3 -3 -3 -3 -3 -4 -4 -6 -3 -1 -1 -1 -1 -0 -1 0 1 -1 -4 -5 -6 -6 -7 -8 -8 -7 -7 -8 -8 -7 -6 -6 -6 -5 -5 -5
-3 -3 -2 -3 -2 -3 -3 -4 -5 -5 -4 -4 -4 -3 -3 -5 -3 -2 -1 -0 -3 -1 -1 0 0 -5 -6 -7 -7 -8 -9 -9 -10 -10 -9 -9 -9 -8 -7 -7 -6 -6 -6 -6
-2 -2 -2 -2 -3 -3 -4 -4 -4 -3 -4 -3 -2 -2 -3 -3 -0 -2 -2 -1 -3 -4 -2 -1 -4 -5 -7 -7 -8 -9 -9 -10 -11 -11 -10 -10 -9 -9 -8 -8 -7 -7 -7 -7
-2 -2 -1 -4 -3 -3 -4 -4 -4 -5 -4 -3 -2 -2 -2 -1 -3 -2 -2 -4 -2 -0 -1 -3 -6 -7 -7 -8 -9 -10 -10 -11 -12 -12 -11 -11 -10 -10 -10 -9 -9 -9 -8 -9
-2 -2 -3 -3 -5 -3 -3 -3 -3 -3 -2 -2 -1 -2 -1 -3 -3 -3 -4 -3 -2 -4 -6 -9 -7 -8 -9 -9 -9 -11 -12 -12 -13 -13 -13 -12 -12 -11 -11 -11 -10 -10 -10 -10
-6 -5 -4 -3 -3 -3 -3 -2 -3 -2 -2 -1 -2 -4 -4 -2 -4 -2 -4 -3 -5 -9 -9 -8 -9 -10 -11 -11 -11 -12 -12 -12 -13 -13 -14 -14 -14 -13 -12 -12 -12 -12 -11 -11
-7 -8 -6 -5 -6 -6 -6 -5 -4 -2 -1 -3 -4 -6 -5 -4 -3 -5 -8 -11 -11 -9 -8 -8 -9 -11 -11 -11 -11 -11 -12 -12 -12 -12 -13 -13 -14 -14 -13 -13 -13 -13 -13 -13

GFSNW_850_dewp_117.txt.gz
Dewpoint
-5 -5 -6 -7 -9 -10 -9 -9 -6 -5 -6 -5 -4 -4 -4 -5 -5 -6 -7 -4 -3 -3 -4 -4 -4 -5 -6 -8 -8 -9 -7 -5 -4 -7 -4 -3 1 3 2 2 3 3 2 -0
-7 -8 -7 -7 -8 -9 -8 -7 -7 -7 -7 -5 -6 -6 -5 -5 -5 -6 -5 -4 -4 -5 -5 -4 -4 -4 -5 -6 -6 -7 -5 -3 -3 -1 -2 -5 -6 -9 0 1 1 3 2 -4
-7 -5 -6 -7 -9 -8 -8 -8 -7 -7 -5 -5 -4 -3 -5 -5 -7 -7 -7 -6 -5 -4 -3 -4 -2 -3 -5 -5 -6 -4 -3 -5 -5 -2 -4 -6 -7 -8 -8 -1 -2 -3 -3 -5
-6 -5 -7 -9 -9 -8 -8 -6 -6 -5 -5 -5 -5 -5 -6 -6 -5 -6 -4 -3 -3 -2 -0 -2 -3 -4 -3 -5 -6 -3 -4 -6 -7 -8 -7 -6 -6 -7 -7 -7 -8 -7 -10 -11
-6 -7 -8 -8 -6 -7 -7 -7 -6 -5 -5 -4 -5 -6 -6 -6 -5 -3 -3 -1 -3 -2 -1 -0 -0 1 -3 -4 -5 -2 -4 -6 -4 -4 -6 -7 -6 -6 -5 -6 -6 -6 -7 -7
-6 -7 -8 -8 -7 -5 -5 -6 -6 -7 -6 -6 -5 -6 -6 -6 -3 -4 -3 -1 -1 -0 -1 -2 -2 -1 -1 -2 -2 -3 -3 -4 -6 -7 -8 -6 -5 -7 -7 -7 -8 -7 -8 -10
-6 -7 -8 -8 -7 -6 -5 -6 -6 -6 -6 -5 -6 -6 -6 -4 -4 -3 -4 -4 -4 -5 -4 -2 -3 -1 -1 -2 -2 -2 -3 -2 -3 -4 -5 -4 -10 -9 -9 -8 -8 -8 -8 -8
-6 -8 -8 -7 -5 -7 -6 -7 -6 -6 -6 -6 -6 -6 -4 -5 -4 -3 -4 -4 -5 -4 -2 -2 -3 -4 -6 -6 -5 -4 -2 -2 -2 -2 -4 -8 -9 -11 -12 -9 -8 -3 -1 0
-5 -7 -8 -7 -4 -6 -7 -6 -5 -6 -6 -7 -6 -4 -5 -4 -4 -5 -4 -6 -6 -4 -3 -2 -1 -2 -4 -4 -4 -3 -3 -2 -2 -2 -2 -2 -9 -3 -4 -2 -5 1 1 2
-4 -7 -7 -7 -4 -4 -7 -7 -5 -4 -4 -7 -6 -5 -4 -5 -4 -4 -4 -4 -5 -5 -2 -1 -1 -2 -3 -0 1 1 1 1 1 0 1 -1 -6 -2 -3 -6 -1 2 2 1
-5 -6 -6 -6 -5 -5 -5 -6 -6 -4 -5 -6 -7 -7 -6 -6 -5 -4 -5 -5 -5 -3 -3 -2 -2 -1 -3 -1 -1 0 1 1 2 1 1 0 1 -1 0 2 2 2 3 2
-5 -7 -6 -6 -5 -5 -5 -4 -5 -4 -4 -5 -6 -7 -7 -7 -7 -5 -6 -4 -4 -4 -2 -3 -2 -2 -2 -2 -1 1 1 1 1 1 -2 -1 0 1 2 3 1 2 3 3
-6 -6 -6 -6 -6 -4 -4 -4 -3 -4 -3 -4 -4 -8 -8 -9 -9 -7 -5 -6 -6 -4 -2 -1 -1 -2 -3 -1 -2 -0 -1 -0 2 2 2 2 1 2 2 2 2 2 2 2
-6 -6 -7 -6 -6 -6 -4 -5 -4 -4 -4 -4 -6 -8 -8 -9 -9 -8 -6 -6 -5 -2 -3 -3 -2 -3 -3 -2 -3 -2 0 1 1 1 1 0 1 0 1 0 0 0 -0 -1
-7 -6 -6 -7 -7 -5 -4 -5 -4 -4 -5 -4 -5 -8 -12 -9 -9 -7 -8 -7 -4 -3 -3 -2 -3 -3 -1 -2 -1 0 -1 0 0 1 -1 -1 -1 -1 -1 0 0 -0 -2 -2
-6 -7 -6 -8 -5 -5 -6 -5 -6 -5 -5 -4 -4 -8 -9 -9 -8 -9 -8 -6 -5 -3 -3 -3 -3 -3 -3 -1 -1 -1 -2 -2 -3 -2 -2 -1 -1 -1 -1 -1 -0 -0 -1 -2
-6 -5 -6 -7 -8 -5 -6 -5 -3 -3 -4 -4 -4 -6 -8 -7 -4 -5 -5 -4 -4 -4 -3 -2 -3 -3 -1 -2 -2 -2 -3 -4 -3 -4 -3 -3 -3 -3 -2 -2 -2 -1 -2 -2
-5 -5 -7 -7 -7 -5 -5 -7 -3 -4 -4 -4 -4 -5 -6 -5 -4 -3 -4 -3 -3 -2 -2 -2 -1 -1 -1 -1 -2 -3 -4 -4 -5 -5 -4 -5 -4 -4 -4 -4 -3 -3 -3 -3
-5 -6 -8 -5 -4 -4 -5 -7 -5 -3 -3 -4 -5 -4 -4 -4 -2 -1 -1 -1 -1 -2 -1 -1 -0 -1 0 -2 -4 -5 -6 -6 -6 -6 -5 -6 -6 -5 -5 -5 -5 -5 -4 -4
-8 -7 -5 -4 -5 -6 -5 -3 -3 -4 -3 -3 -4 -6 -4 -4 -1 -1 -1 -1 0 0 0 -1 0 -2 -3 -4 -5 -6 -7 -8 -8 -8 -8 -7 -7 -7 -7 -6 -6 -6 -6 -5
-5 -4 -4 -4 -4 -3 -4 -3 -3 -3 -3 -4 -4 -5 -4 -6 -2 -2 -1 -0 -0 0 -0 1 0 -2 -5 -5 -6 -7 -9 -9 -10 -10 -9 -9 -9 -9 -8 -7 -7 -6 -6 -6
-6 -3 -3 -3 -3 -3 -3 -4 -4 -5 -4 -4 -4 -4 -4 -5 -5 -2 -1 -0 -2 -0 -1 0 -0 -5 -6 -6 -7 -8 -9 -10 -11 -11 -11 -10 -10 -9 -8 -8 -8 -8 -7 -7
-3 -3 -3 -2 -3 -3 -4 -4 -4 -4 -5 -4 -3 -2 -3 -3 -1 -2 -1 -1 -2 -4 -2 -1 -5 -6 -7 -8 -9 -9 -10 -11 -12 -12 -12 -11 -11 -10 -10 -9 -9 -9 -8 -8
-3 -3 -2 -3 -4 -3 -4 -4 -4 -6 -5 -3 -3 -2 -2 -2 -1 -2 -1 -2 -2 -1 -1 -2 -6 -7 -8 -9 -10 -11 -12 -13 -13 -13 -13 -13 -12 -12 -11 -11 -10 -10 -10 -10
-3 -2 -3 -3 -6 -4 -4 -5 -4 -3 -4 -3 -2 -2 -1 -2 -2 -2 -3 -2 -2 -3 -4 -7 -7 -8 -10 -11 -12 -12 -13 -13 -13 -13 -14 -14 -14 -14 -13 -12 -11 -11 -11 -11
-5 -5 -4 -4 -3 -3 -2 -3 -3 -3 -3 -2 -2 -3 -2 -2 -3 -2 -2 -3 -3 -7 -8 -8 -9 -10 -11 -11 -11 -12 -12 -12 -12 -12 -13 -14 -14 -14 -14 -13 -13 -12 -12 -12
-6 -8 -6 -5 -5 -5 -6 -4 -4 -2 -2 -0 -4 -4 -3 -4 -2 -4 -8 -6 -9 -9 -8 -8 -8 -9 -11 -11 -11 -11 -12 -12 -12 -12 -13 -14 -15 -14 -14 -14 -14 -13 -13 -13

GFSNW_850_dewp_123.txt.gz
Dewpoint
-5 -9 -6 -10 -14 -13 -7 -5 -1 -10 -5 -5 -9 -9 -11 -10 -12 -10 -10 -10 -8 -8 -9 -9 -10 -10 -12 -13 -12 -9 -11 -5 -8 -11 -10 -4 -2 1 5 7 1 -0 -1 -2
-10 -5 -7 -10 -13 -9 -4 -4 -8 -6 -2 -1 -6 -8 -9 -10 -10 -11 -11 -11 -12 -11 -9 -8 -10 -11 -13 -11 -10 -9 -5 -6 -3 -8 -14 -3 0 -0 0 2 4 5 4 3
-5 -7 -8 -11 -13 -11 -3 -3 -2 -7 -6 -8 -6 -6 -9 -10 -11 -11 -12 -10 -10 -7 -5 -8 -5 -8 -10 -7 -7 -7 -6 -5 -5 -5 -9 0 -4 1 -3 -3 1 1 5 5
-6 -7 -8 -12 -11 -9 -2 -1 -5 -6 -1 -6 -8 -9 -10 -8 -8 -9 -9 -8 -6 -4 -3 -5 -5 -4 -4 -8 -7 -7 -6 -4 -5 -8 -12 -14 -13 -10 -6 -3 -3 -2 -5 -3
-5 -4 -9 -13 -10 -8 -3 -2 -5 -7 -8 -8 -8 -8 -8 -9 -9 -7 -5 -4 -5 -4 -4 -2 -1 -5 -5 -3 -4 -5 -8 0 -5 -7 -10 -12 -13 -13 -10 -8 -7 -7 -7 -8
-4 -4 -10 -13 -9 -3 -4 -5 -4 -5 -7 -7 -7 -7 -8 -8 -5 -7 -7 -4 -2 -5 -7 -7 -6 -6 -5 -5 -4 -3 -3 -3 -5 -4 -9 -9 -10 -14 -14 -13 -12 -9 -9 -10
-5 -7 -11 -8 -8 -3 -5 -4 -7 -3 -6 -9 -9 -10 -9 -6 -7 -5 -8 -8 -7 -8 -6 -5 -6 -7 -7 -6 -7 -6 -3 -4 -4 -2 -5 -2 -11 -16 -16 -13 -13 -14 -14 -15
-4 -7 -9 -8 -8 -5 -4 -4 -4 -5 -5 -10 -11 -9 -7 -8 -9 -7 -8 -8 -7 -5 -6 -3 -5 -8 -8 -9 -7 -9 -9 -5 -3 -1 -2 -4 -8 -5 -8 -7 -8 -13 -12 -11
-6 -7 -9 -8 -8 -7 -4 -4 -3 -5 -5 -9 -10 -9 -8 -8 -9 -9 -8 -7 -7 -5 -5 -4 -3 -3 -6 -4 -2 -2 -1 0 0 -2 2 -1 -3 -8 -8 -7 -3 -2 -0 -0
-6 -6 -10 -9 -5 -9 -3 -4 -2 -5 -4 -8 -7 -8 -8 -7 -7 -7 -9 -7 -7 -7 -4 -2 -3 -6 -8 -3 -0 -1 -0 0 3 0 2 -3 1 -4 -5 0 2 1 1 1
-4 -5 -9 -8 -5 -5 -4 -3 -3 -4 -4 -5 -6 -6 -7 -7 -8 -7 -7 -6 -4 -5 -3 -3 -5 -3 -3 -2 -3 1 1 1 0 2 2 3 1 -2 4 3 -0 1 2 0
-3 -4 -6 -9 -7 -5 -3 -2 -3 -2 -3 -4 -3 -4 -5 -6 -7 -7 -7 -7 -7 -6 -2 -3 -3 -2 -4 -2 -0 -1 1 1 1 2 2 1 -0 -1 -1 -0 2 1 -0 0
-4 -4 -6 -8 -8 -5 -5 -3 -3 -4 -4 -4 -5 -6 -5 -5 -5 -5 -6 -9 -7 -7 -3 -3 -3 -4 -7 -1 -3 -1 0 0 2 1 -0 -1 -1 -2 -2 -2 -2 -1 -1 -1
-4 -4 -5 -7 -7 -7 -5 -3 -3 -3 -3 -4 -6 -7 -5 -6 -6 -5 -4 -6 -6 -6 -4 -4 -4 -3 -7 -5 -5 -3 -0 0 -1 2 -1 -3 -1 -2 -2 -2 -2 -2 -1 -1
-4 -5 -7 -6 -7 -7 -5 -3 -3 -3 -3 -2 -5 -6 -6 -6 -6 -5 -5 -4 -5 -6 -3 -3 -3 -6 -5 -5 -5 0 -3 -1 -0 -0 -2 -2 -1 -2 -2 -2 -2 -2 -2 -3
-5 -7 -6 -6 -6 -4 -3 -4 -4 -3 -5 -3 -4 -7 -7 -6 -6 -6 -5 -5 -5 -5 -3 -5 -5 -6 -4 -1 -3 -2 -3 -2 -2 -3 -4 -4 -2 -2 -3 -3 -3 -3 -4 -4
-6 -7 -6 -6 -6 -5 -3 -3 -3 -5 -3 -3 -4 -6 -7 -5 -4 -4 -5 -5 -5 -4 -2 -3 -5 -6 -2 -2 -3 -1 -4 -3 -3 -4 -4 -4 -4 -4 -5 -4 -4 -4 -4 -4
-6 -7 -5 -6 -6 -4 -3 -5 -4 -5 -4 -3 -3 -5 -7 -5 -4 -2 -3 -3 -3 -3 -4 -5 -4 -3 -2 -1 -2 -4 -5 -5 -5 -7 -5 -6 -6 -6 -6 -6 -5 -5 -5 -5
-7 -5 -5 -5 -4 -4 -3 -4 -5 -5 -3 -3 -4 -3 -3 -4 -4 -1 -1 -1 -1 -3 -1 -3 -3 -2 0 -2 -4 -5 -6 -7 -8 -8 -7 -7 -7 -7 -7 -7 -6 -6 -6 -6
-4 -4 -5 -4 -6 -6 -5 -5 -4 -4 -4 -4 -3 -6 -4 -7 -3 -2 -2 -1 -0 1 -2 -3 -0 -2 -4 -4 -5 -6 -7 -9 -9 -9 -9 -9 -8 -8 -8 -8 -7 -7 -7 -7
-4 -4 -4 -3 -8 -5 -3 -3 -3 -4 -3 -4 -6 -7 -6 -7 -4 -3 -6 1 1 0 0 -0 0 0 -4 -5 -6 -6 -8 -10 -10 -10 -10 -10 -9 -9 -9 -9 -8 -8 -8 -9
-4 -5 -4 -5 -3 -3 -3 -3 -4 -4 -7 -7 -5 -6 -7 -6 -5 -4 -3 -2 0 -0 -1 -0 -1 -4 -6 -6 -7 -8 -9 -11 -11 -12 -11 -11 -11 -10 -10 -10 -9 -10 -10 -10
-7 -6 -4 -3 -3 -2 -3 -3 -3 -4 -6 -5 -5 -3 -4 -4 -4 -3 -1 -0 -1 -3 -1 -2 -3 -6 -7 -7 -8 -10 -11 -11 -11 -12 -12 -12 -12 -12 -13 -13 -13 -12 -11 -11
-6 -3 -2 -2 -2 -4 -6 -7 -6 -7 -4 -4 -4 -3 -3 -2 -2 -1 -1 -2 -2 -0 -1 -1 -5 -6 -7 -8 -9 -10 -10 -11 -13 -13 -12 -14 -15 -15 -14 -14 -14 -12 -12 -12
-4 -3 -3 -2 -4 -3 -3 -3 -4 -3 -3 -3 -3 -3 -2 -1 -1 -1 -1 0 -1 -2 -0 -3 -6 -7 -8 -8 -8 -8 -9 -11 -10 -12 -14 -14 -15 -15 -14 -14 -14 -13 -13 -13
-4 -3 -2 -2 -2 -1 -3 -2 -2 -2 -3 -3 -3 -1 -2 -0 -1 1 -1 -2 -2 -1 -4 -6 -7 -7 -7 -8 -8 -9 -12 -12 -11 -11 -12 -12 -14 -15 -14 -13 -13 -14 -14 -14
-4 -3 -4 -4 -3 -2 -3 -2 -2 -2 -2 -1 -2 -1 -1 -2 -1 -2 -3 -1 -3 -6 -6 -6 -7 -7 -8 -9 -9 -10 -11 -10 -11 -11 -12 -12 -13 -13 -12 -13 -13 -14 -14 -15